This is the latest recevied weather packets stored in our database for station/object LU8FJH-13. If no packets are shown the sender has not sent any weather packets the latest 1 day(s).
| Time | Temp. | Humidity | Pressure | Rain* | Wind** | Luminosity | Snow |
|---|---|---|---|---|---|---|---|
| 1778045461 | 21.11° C | 91% | 1010.1 hPa | 0 mm | 0.89 m/s, 36° | - | - |
| 1778044921 | 21.11° C | 91% | 1010.1 hPa | 0 mm | 0.89 m/s, 27° | - | - |
| 1778044381 | 21.11° C | 91% | 1010.2 hPa | 0 mm | 0.89 m/s, 17° | - | - |
| 1778043841 | 21.11° C | 91% | 1010.5 hPa | 0 mm | 0.89 m/s, 14° | - | - |
| 1778043301 | 21.11° C | 91% | 1010.2 hPa | 0 mm | 0.89 m/s, 39° | - | - |
| 1778042761 | 21.11° C | 91% | 1010.4 hPa | 0 mm | 0.89 m/s, 33° | - | - |
| 1778042221 | 21.11° C | 91% | 1010.5 hPa | 0 mm | 0.89 m/s, 44° | - | - |
| 1778041681 | 21.11° C | 91% | 1010.3 hPa | 0 mm | 0.45 m/s, 7° | - | - |
| 1778041141 | 21.11° C | 91% | 1010.4 hPa | 0 mm | 0.89 m/s, 29° | - | - |
| 1778040601 | 21.67° C | 90% | 1010.4 hPa | 0 mm | 0.89 m/s, 23° | - | - |
| 1778040061 | 21.67° C | 90% | 1010.4 hPa | 0 mm | 0.89 m/s, 24° | - | - |
| 1778039521 | 21.67° C | 90% | 1010.4 hPa | 0 mm | 0.89 m/s, 25° | - | - |
| 1778038981 | 21.67° C | 90% | 1010.2 hPa | 0 mm | 0.89 m/s, 21° | - | - |
| 1778038441 | 21.67° C | 90% | 1010.2 hPa | 0 mm | 1.79 m/s, 10° | - | - |
| 1778037901 | 21.67° C | 90% | 1010.5 hPa | 0 mm | 1.34 m/s, 31° | - | - |
| 1778037361 | 21.67° C | 91% | 1010.7 hPa | 0 mm | 1.34 m/s, 36° | - | - |
| 1778036821 | 21.67° C | 91% | 1010.6 hPa | 0 mm | 0.89 m/s, 46° | - | - |
| 1778036281 | 21.67° C | 91% | 1010.6 hPa | 0 mm | 0.45 m/s, 44° | - | - |
| 1778035741 | 21.67° C | 92% | 1010.7 hPa | 0 mm | 0.89 m/s, 5° | - | - |
| 1778035201 | 21.67° C | 92% | 1010.8 hPa | 0 mm | 1.79 m/s, 23° | - | - |
| 1778034661 | 21.67° C | 93% | 1010.7 hPa | 0 mm | 1.34 m/s, 23° | - | - |
| 1778034121 | 21.67° C | 93% | 1010.8 hPa | 0 mm | 0.89 m/s, 20° | - | - |
| 1778033581 | 21.67° C | 93% | 1010.7 hPa | 0 mm | 0.89 m/s, 16° | - | - |
| 1778033041 | 21.67° C | 93% | 1010.8 hPa | 0 mm | 1.79 m/s, 16° | - | - |
| 1778032501 | 21.67° C | 93% | 1010.9 hPa | 0 mm | 1.34 m/s, 32° | - | - |
* Rain latest hour (hover to see other rain measurements)
** Current wind speed in m/s (hover to see current wind gust speed)